Theta_e
357 358 359 359 359 359 359 358 356 355 353 352 352 352 352 352 351 352 353 355 356 357 357 357 357 357 357 357 356 355 353 351 351 353 353 352 351 352 354 354 354 353
352 352 353 353 352 352 352 351 351 352 352 352 353 351 351 351 351 352 353 355 356 357 358 358 358 358 357 357 357 355 354 352 352 352 352 352 351 351 353 354 353 353
345 345 344 342 343 343 344 347 348 350 351 351 351 350 350 350 351 351 353 354 356 356 356 357 357 357 357 358 357 357 357 355 354 353 351 351 351 351 352 353 353 353
337 338 337 335 335 336 339 343 345 346 348 349 349 349 350 349 349 350 351 352 354 354 354 355 355 356 357 357 357 357 358 358 356 354 351 351 352 351 351 352 352 352
332 334 334 335 336 336 337 340 342 343 345 346 347 348 348 349 348 348 349 350 352 353 353 354 354 355 356 357 357 357 357 357 357 356 353 352 352 352 352 352 352 352
332 333 335 336 337 337 338 339 341 342 343 344 344 346 347 347 348 348 347 347 349 351 353 354 354 355 356 356 357 356 356 357 357 356 353 352 353 352 352 352 352 353
333 334 335 336 337 338 338 338 340 341 342 343 343 344 345 346 347 347 346 346 347 349 351 353 353 354 354 355 356 355 355 356 355 355 353 352 353 353 352 352 352 353
335 336 336 338 338 338 337 337 338 340 341 342 343 343 344 346 347 346 346 347 346 347 349 350 351 352 352 353 354 355 355 354 354 355 354 353 353 352 352 353 352 353
337 338 339 339 340 338 337 337 337 338 340 341 342 342 343 345 346 346 346 347 347 347 347 347 347 348 349 350 352 353 353 354 354 354 354 353 353 353 353 353 352 352
339 339 340 339 339 338 337 338 338 338 340 342 342 342 343 344 345 346 346 347 348 348 348 347 346 345 346 348 349 351 352 352 353 353 354 353 353 353 353 352 352 352
339 339 338 338 337 338 337 338 338 340 341 342 342 342 343 344 344 345 346 346 348 348 349 349 347 346 346 346 347 349 350 351 352 352 352 353 353 354 353 353 353 352
339 336 335 335 335 337 338 339 340 340 341 341 341 342 343 344 345 345 346 346 347 348 348 348 348 348 347 347 346 347 349 349 351 351 352 352 353 353 354 353 353 353
336 333 332 333 335 337 338 339 340 340 340 341 341 342 343 344 345 345 345 346 346 347 347 348 348 348 347 348 347 347 347 348 349 351 351 351 352 353 354 354 353 353
333 332 333 334 335 337 339 339 340 340 341 341 342 342 343 343 344 345 345 346 346 347 347 347 348 348 347 347 347 346 346 346 348 350 351 351 351 352 352 353 353 353
334 334 334 335 336 337 339 339 340 341 341 342 342 342 343 343 344 345 346 346 346 347 347 347 347 347 346 345 346 345 346 346 346 348 350 350 350 351 351 352 352 352
335 335 336 337 337 338 339 340 341 341 341 342 342 342 343 344 344 345 346 346 346 346 346 346 345 344 344 344 344 345 346 347 347 348 350 350 349 350 349 350 351 352
335 336 337 338 338 339 340 341 341 341 341 342 343 343 343 343 344 344 345 345 345 345 344 344 343 343 343 343 343 344 345 346 346 347 349 350 350 349 349 350 350 351
337 338 338 338 340 341 341 342 342 342 342 342 342 343 343 343 343 343 343 343 343 344 343 343 342 342 342 342 342 343 343 344 344 345 346 348 349 349 349 349 349 350
338 339 340 340 341 341 341 342 342 341 342 342 342 343 342 342 343 343 343 342 342 342 342 341 341 341 341 342 342 342 342 342 343 343 344 346 347 348 348 349 349 350
339 340 340 340 341 341 341 341 341 341 342 342 342 342 342 342 342 342 342 342 341 341 341 341 341 341 341 341 342 342 342 341 342 342 343 344 345 346 347 348 349 349
339 340 340 340 341 341 341 341 342 342 342 342 342 342 342 342 342 341 341 341 341 341 341 341 341 341 341 342 342 342 342 342 342 342 342 343 344 345 346 348 349 350
340 340 340 340 340 340 341 341 341 341 341 341 341 341 341 342 341 341 341 340 341 341 341 341 341 341 342 342 342 342 343 343 342 342 342 343 344 346 346 347 348 349
340 340 340 340 340 340 341 341 341 341 341 341 341 341 341 341 341 341 341 341 341 341 341 342 342 342 342 342 342 343 343 343 343 343 342 343 344 345 346 347 348 349
339 340 339 340 340 340 340 340 340 341 340 340 340 340 340 340 340 340 340 341 341 341 341 342 342 342 342 342 342 342 343 343 343 343 343 343 344 345 347 348 349 349
339 339 339 340 340 340 340 340 340 340 340 340 340 340 340 339 340 341 341 341 341 341 342 342 342 342 341 342 342 342 343 343 343 343 344 344 345 346 347 348 348 349
338 339 339 339 339 339 339 339 340 339 339 339 339 339 340 340 340 340 341 341 341 342 342 341 341 341 341 341 342 343 343 343 343 343 344 344 345 346 347 348 348 349
Wind_Speed
6 8 10 12 13 14 14 15 15 16 16 16 17 18 18 19 19 19 20 20 21 22 23 24 25 27 27 27 28 26 26 29 30 28 25 24 27 30 30 29 29 28
3 4 6 8 10 11 12 14 14 15 16 16 17 18 19 19 19 20 20 20 20 21 22 23 25 26 26 26 26 26 29 32 33 31 28 28 30 31 32 32 31 29
6 7 8 9 11 12 13 14 14 15 16 17 18 19 19 19 19 19 19 19 19 20 21 22 23 24 24 24 25 27 31 32 32 30 28 29 30 29 29 30 31 30
8 9 10 11 13 14 15 15 16 16 17 18 18 18 19 18 18 18 19 19 19 19 20 21 22 23 22 22 24 27 30 30 30 30 28 30 32 31 29 27 28 30
7 8 10 12 13 15 16 16 17 17 17 18 18 18 18 18 18 18 19 19 19 19 20 20 21 22 21 21 23 26 27 29 30 30 30 31 32 33 32 29 27 29
7 9 11 13 15 16 17 18 18 18 18 19 18 18 18 18 18 19 19 19 19 19 20 20 21 22 21 21 23 24 25 27 30 29 29 31 32 33 33 30 29 30
9 11 13 15 17 17 18 19 20 20 20 20 19 19 19 19 19 18 18 18 19 19 19 20 21 21 21 22 24 24 24 25 27 28 28 30 32 33 31 28 28 30
12 14 15 17 18 19 20 21 21 21 21 21 21 20 20 19 19 18 17 18 19 19 20 20 21 21 22 23 24 24 24 23 25 27 28 30 31 31 31 28 27 29
14 16 18 19 20 21 22 22 22 22 21 22 22 22 21 20 19 19 18 18 19 20 21 20 21 21 22 23 24 24 24 24 25 27 28 29 30 31 31 30 28 29
17 18 20 21 22 23 24 24 24 23 22 23 23 23 22 20 20 19 19 20 21 22 22 22 22 22 23 23 24 24 25 25 26 27 29 29 30 31 31 31 29 29
18 19 21 23 24 25 25 25 24 24 23 24 24 24 23 21 21 20 21 22 22 23 24 24 24 24 24 25 25 25 25 26 27 28 28 29 30 30 30 30 30 30
19 20 22 24 25 25 26 25 24 24 24 24 24 24 23 23 22 22 22 23 23 24 24 25 26 26 26 26 26 26 26 27 28 29 29 29 29 30 30 30 31 31
20 21 23 25 26 26 25 24 24 24 25 25 24 24 24 24 24 24 24 24 24 25 25 26 27 27 27 27 27 27 27 27 28 29 30 29 29 30 30 30 31 31
21 22 24 26 27 26 25 24 24 25 25 25 25 25 25 25 25 26 25 25 26 26 27 27 27 28 28 27 27 28 28 28 29 30 30 29 29 30 30 30 30 31
22 23 24 26 27 27 26 25 25 25 25 25 25 25 26 26 26 26 26 27 27 27 28 27 28 30 29 28 27 27 27 27 28 29 29 29 30 30 30 30 30 30
22 23 25 26 27 27 27 26 25 25 25 25 25 25 26 26 26 27 27 28 28 28 28 28 29 30 30 29 27 26 27 27 28 29 29 29 30 30 30 30 30 30
21 23 25 27 27 26 26 25 25 25 25 25 25 25 26 26 26 27 28 28 28 28 28 29 30 32 31 29 28 27 28 29 29 30 29 29 30 30 30 30 29 29
22 24 25 26 25 25 25 25 25 25 26 26 26 26 26 26 26 27 28 28 28 29 29 30 31 32 32 31 30 29 29 29 31 31 30 30 30 30 30 30 29 29
23 24 24 24 24 24 25 25 25 26 26 26 27 26 26 26 27 27 27 28 28 29 30 31 32 33 32 32 32 30 30 30 31 32 31 30 31 30 30 30 30 30
23 22 23 23 24 24 25 26 26 26 27 27 27 26 26 27 27 27 27 28 28 29 31 32 32 33 33 33 33 32 31 30 31 31 31 31 32 32 31 31 31 30
22 22 22 23 24 25 25 26 26 27 27 27 26 26 27 27 27 27 28 29 29 29 30 32 33 32 32 33 33 33 32 32 32 31 31 32 33 32 32 33 32 31
22 23 23 24 25 25 25 26 27 27 27 27 26 26 27 27 27 27 28 28 29 29 30 32 33 32 32 33 34 34 34 34 33 32 30 31 33 32 32 33 32 32
22 23 24 24 24 24 25 26 27 27 28 27 26 26 27 27 27 28 28 28 30 30 30 32 33 33 33 34 34 34 34 33 33 32 30 30 32 32 32 32 33 33
23 23 24 24 24 24 25 27 27 28 28 27 26 27 28 28 28 29 29 30 30 31 31 32 34 35 35 35 35 34 34 33 32 31 30 29 30 31 31 32 33 33
23 24 24 24 24 25 26 27 28 27 28 28 27 27 28 29 29 29 30 30 30 31 33 34 35 36 36 36 35 34 33 33 32 31 30 29 28 29 29 30 31 31
24 24 24 25 25 27 27 27 27 27 27 28 28 28 28 29 30 30 31 31 31 32 33 35 35 35 36 36 35 33 32 32 32 32 29 27 26 26 27 28 29 30
Wind_Direction
268 270 271 272 273 274 275 277 278 278 279 280 279 281 283 285 288 287 284 281 279 278 278 278 277 275 271 271 271 270 269 267 262 260 256 249 246 247 248 247 246 245
280 282 280 282 279 279 278 276 277 276 275 275 276 280 283 285 289 288 285 282 277 275 276 276 276 273 269 266 262 260 263 261 257 256 253 247 244 243 245 247 246 244
279 281 285 292 291 288 285 280 277 275 275 277 279 283 287 289 292 292 290 287 282 281 281 279 278 274 271 267 259 257 261 262 261 259 253 250 249 245 247 248 246 244
280 286 294 302 304 301 296 289 285 281 280 281 282 286 290 295 297 296 295 292 288 287 286 284 283 280 275 270 263 261 263 265 265 260 252 250 251 247 247 249 248 247
289 294 299 301 302 301 297 291 288 287 286 286 287 289 292 296 298 298 297 295 291 289 289 287 286 284 281 275 268 263 262 263 265 261 254 253 253 250 248 247 248 248
304 303 301 299 297 297 294 291 290 290 290 292 293 294 294 294 296 297 297 296 292 289 287 286 284 283 280 276 273 268 263 263 265 264 258 255 256 255 251 246 243 244
300 301 299 296 295 295 295 294 293 292 293 297 297 295 294 293 292 292 294 295 294 290 285 283 282 282 280 277 275 273 269 266 266 264 259 257 258 257 252 246 243 244
291 292 292 290 290 293 296 297 296 295 296 297 296 295 293 290 287 287 287 289 291 291 288 285 283 282 282 280 277 274 271 268 264 261 259 258 258 256 253 249 247 248
287 288 290 288 287 291 294 297 297 297 296 296 296 297 294 289 287 286 284 283 285 287 288 287 286 284 283 280 277 274 271 267 263 261 261 260 258 256 254 252 249 249
287 290 291 290 290 292 293 296 297 297 296 295 295 296 294 290 289 287 285 282 280 282 284 284 285 285 284 281 276 273 270 269 266 262 261 261 259 257 256 254 252 250
288 292 293 293 293 295 295 297 298 297 296 295 295 294 293 291 289 286 285 283 280 280 281 282 283 283 284 283 279 275 272 270 268 265 262 261 260 259 257 255 253 251
289 292 295 296 296 297 299 300 299 298 297 296 294 293 291 289 287 285 284 283 282 281 280 280 281 280 280 281 280 278 273 271 269 266 264 262 260 260 258 255 253 252
288 292 296 298 299 301 301 300 298 297 296 295 294 292 290 287 286 285 284 283 282 281 280 279 278 278 278 278 279 277 273 271 268 266 265 263 261 259 258 256 254 252
286 292 296 299 301 303 301 298 296 296 295 293 292 289 287 286 285 285 284 283 281 280 279 278 276 276 277 276 276 275 273 270 268 266 264 263 261 259 257 257 255 253
286 292 296 299 301 301 299 296 296 295 294 292 290 288 287 286 286 285 284 282 280 278 277 276 275 275 275 275 274 273 272 271 269 267 263 261 262 261 258 257 255 254
291 296 298 300 301 299 297 296 296 296 295 292 290 289 288 287 286 284 281 279 278 277 276 275 274 274 274 274 272 270 270 271 270 268 265 262 261 261 260 258 255 254
296 299 300 300 299 297 296 296 296 296 294 292 290 289 288 287 285 282 280 278 277 276 275 274 274 275 274 273 271 269 269 270 269 269 266 263 261 261 260 259 256 254
299 300 299 298 297 296 295 296 295 293 292 289 288 287 287 286 284 281 280 279 277 277 276 275 275 275 275 274 271 270 270 270 269 269 266 263 261 259 259 259 257 255
302 301 299 297 296 296 296 296 293 290 289 288 287 287 286 285 283 282 280 279 278 278 277 277 277 277 276 274 273 272 272 271 270 268 266 262 260 258 257 257 256 255
302 300 298 297 297 297 295 294 291 289 289 289 288 288 286 285 284 282 281 280 279 278 278 278 278 277 277 276 275 274 273 272 270 268 266 262 260 258 256 255 254 252
301 301 299 297 297 296 294 292 290 289 290 291 290 288 286 284 284 283 283 283 281 279 278 279 278 278 277 277 275 274 274 272 269 267 266 262 259 257 255 254 253 250
301 300 297 296 295 294 291 290 289 289 290 291 290 288 286 285 284 283 283 283 282 280 279 278 278 278 278 277 276 274 273 271 268 266 264 261 259 257 254 254 253 250
298 296 293 293 293 291 289 289 289 289 290 291 290 288 287 286 285 285 284 283 282 281 279 278 278 279 279 278 276 274 271 269 265 263 261 258 258 257 255 254 253 250
297 294 292 291 292 291 290 289 289 289 290 291 290 288 288 288 287 287 286 284 283 282 280 279 279 279 279 277 275 272 269 266 263 261 260 259 257 257 256 253 251 250
298 296 294 293 292 292 292 291 290 291 293 293 292 290 290 289 289 288 287 286 286 285 283 282 280 280 280 278 274 271 266 262 259 257 258 257 256 255 254 252 250 250
299 298 296 295 294 294 294 293 292 294 295 295 294 292 291 291 291 290 289 288 288 286 284 283 281 280 280 278 274 269 264 260 255 251 251 255 256 254 252 251 250 250